Location: Newark
(35.6799°N, 139.7636°E)
Time: 19:43:25
(UTC+00:00)

Vanguard 2 Rocket - All Passes

Search period start: 12 December 2019 00:00
Search period end: 22 December 2019 00:00
Orbit: 554 x 3326 km, 32.9° (Epoch: 11 December)

Date Brightness Start Highest point End Pass type
(mag) Time Alt. Az. Time Alt. Az. Time Alt. Az.
12 Dec - 05:22:40 10° SSW 05:38:25 32° SSE 05:49:55 10° E daylight
12 Dec - 07:38:01 10° SW 07:54:40 58° SSE 08:04:28 10° E visible
12 Dec - 09:56:42 10° W 10:09:54 76° S 10:17:02 10° E visible
12 Dec - 12:15:01 10° W 12:23:37 53° SSW 12:28:43 10° ESE visible
12 Dec - 14:33:20 10° WSW 14:35:28 12° SW 14:37:20 10° SSW night (unlit)
13 Dec - 04:22:44 10° S 04:37:03 25° SE 04:48:41 10° E daylight
13 Dec - 06:36:01 10° SW 06:53:38 51° SSE 07:04:53 10° E daylight
13 Dec - 08:54:08 10° WSW 09:09:31 74° S 09:18:00 10° E visible
13 Dec - 11:13:09 10° W 11:24:02 68° SSW 11:30:05 10° ESE visible
13 Dec - 13:31:03 10° W 13:36:34 24° SW 13:40:29 10° SSE night (unlit)
14 Dec - 03:24:15 10° S 03:35:42 18° SE 03:45:57 10° ESE daylight
14 Dec - 05:34:33 10° SW 05:52:19 43° SSE 06:04:51 10° E daylight
14 Dec - 07:51:30 10° WSW 08:08:47 69° SSE 08:18:46 10° E visible
14 Dec - 10:10:49 10° W 10:24:04 76° S 10:31:15 10° ESE visible
14 Dec - 12:29:18 10° W 12:37:29 40° SSW 12:42:31 10° SE visible
15 Dec - 02:29:32 10° SSE 02:34:23 11° SE 02:39:07 10° ESE daylight
15 Dec - 04:33:49 10° SSW 04:50:51 36° SSE 05:04:13 10° E daylight
15 Dec - 06:49:06 10° SW 07:07:39 63° SSE 07:19:15 10° E daylight
15 Dec - 09:08:08 10° W 09:23:42 78° S 09:32:14 10° E visible
15 Dec - 11:27:20 10° W 11:38:03 57° SSW 11:44:06 10° SE visible
15 Dec - 13:46:23 10° WSW 13:50:02 15° SW 13:52:58 10° S night (unlit)
16 Dec - 03:34:04 10° S 03:49:22 28° SE 04:02:40 10° E daylight
16 Dec - 05:47:10 10° SW 06:06:14 55° SSE 06:19:22 10° E daylight
16 Dec - 08:05:19 10° WSW 08:22:55 77° S 08:33:00 10° E visible
16 Dec - 10:24:58 10° W 10:38:11 70° SSW 10:45:24 10° ESE visible
16 Dec - 12:43:50 10° W 12:51:06 28° SW 12:55:53 10° SSE visible
17 Dec - 02:35:43 10° S 02:47:58 20° SE 02:59:38 10° E daylight
17 Dec - 04:45:54 10° SW 05:04:35 47° SSE 05:19:01 10° E daylight
17 Dec - 07:02:38 10° WSW 07:21:42 72° SSE 07:33:30 10° E daylight
17 Dec - 09:22:15 10° W 09:37:52 77° S 09:46:27 10° ESE visible
17 Dec - 11:41:35 10° W 11:51:51 44° SSW 11:57:53 10° SE visible
18 Dec - 01:40:35 10° SSE 01:46:47 12° SE 01:53:00 10° ESE daylight
18 Dec - 03:45:27 10° SSW 04:02:55 38° SE 04:18:00 10° E daylight
18 Dec - 06:00:21 10° WSW 06:20:09 66° SSE 06:33:41 10° E daylight
18 Dec - 08:19:21 10° W 08:37:05 80° S 08:47:14 10° E visible
18 Dec - 10:39:08 10° W 10:52:10 59° SSW 10:59:24 10° SE visible
18 Dec - 12:58:57 10° W 13:04:28 18° SW 13:08:33 10° S visible
19 Dec - 02:45:59 10° SSW 03:01:23 29° SE 03:16:03 10° E daylight
19 Dec - 04:58:41 10° SW 05:18:21 58° SSE 05:33:28 10° E daylight
19 Dec - 07:16:29 10° WSW 07:35:49 78° S 07:47:44 10° E daylight
19 Dec - 09:36:23 10° W 09:51:58 71° SSW 10:00:34 10° ESE visible
19 Dec - 11:56:03 10° W 12:05:24 32° SW 12:11:15 10° SSE visible
20 Dec - 01:47:53 10° S 02:00:06 21° SE 02:12:36 10° E daylight
20 Dec - 03:57:44 10° SW 04:16:29 49° SSE 04:32:42 10° E daylight
20 Dec - 06:13:57 10° WSW 06:34:09 74° SSE 06:47:55 10° E daylight
20 Dec - 08:33:28 10° W 08:51:13 78° S 09:01:25 10° ESE visible
20 Dec - 10:53:21 10° W 11:05:55 47° SSW 11:13:09 10° SE visible
20 Dec - 13:16:47 10° WSW 13:17:37 10° SW 13:18:25 10° SW visible
21 Dec - 00:52:55 10° SSE 00:59:08 12° SE 01:05:37 10° ESE daylight
21 Dec - 02:57:38 10° SSW 03:14:44 40° SE 03:31:16 10° E daylight
21 Dec - 05:11:58 10° WSW 05:32:11 68° SSE 05:47:44 10° E daylight
21 Dec - 07:30:31 10° W 07:49:58 81° S 08:01:57 10° E visible
21 Dec - 09:50:32 10° W 10:05:54 62° SSW 10:14:32 10° SE visible
21 Dec - 12:11:01 10° W 12:18:40 22° SW 12:23:59 10° S visible
